Regional Weather Roundup
Issued by NWS Northern Indiana

Home | Current Version | Previous Version | Text Only | Print | Product List | Glossary On
Versions: 1 2 3 4 5 6 7 8 9 10 11 12 13 14 15 16 17 18 19 20 21 22 23 24 25 26 27 28 29 30 31 32 33 34 35 36 37 38 39 40 41 42 43 44 45 46 47 48 49 50
000
ASUS43 KIWX 080210
RWRIWX

KIWX WEATHER ROUNDUP
NATIONAL WEATHER SERVICE NORTHERN INDIANA
900 PM EST WED DEC 07 2016

NOTE: "FAIR" INDICATES FEW OR NO CLOUDS BELOW 12,000 FEET WITH NO
SIGNIFICANT WEATHER AND/OR OBSTRUCTIONS TO VISIBILITY.

* THESE STATIONS ARE NOT UNDER NWS QUALITY CONTROL. THEY ALSO MAY NOT
  REPORT WEATHER SUCH AS PRECIPITATION OR FOG.

INZ001>027-080300-
NORTHERN INDIANA

CITY           SKY/WX    TMP DP  RH WIND       PRES   REMARKS
GARY*          PTCLDY    27  18  69 W24G43    30.15S WCI  12
VALPARAISO     PTCLDY    26  19  74 W23G30    30.13F WCI  11
MICHIGAN CITY* CLOUDY    28  19  69 W13G21    30.13F WCI  18
LAPORTE*       PTCLDY    25  19  79 W13       30.12F WCI  14
KNOX*          PTCLDY    27   5  39 W14       30.14S WCI  15
SOUTH BEND     CLOUDY    25  19  78 W16       30.11S WCI  12
ELKHART*       MOCLDY    27  19  74 W13G20    30.10R WCI  16
GOSHEN         MOCLDY    28  20  71 W18       30.10R WCI  15
MONTICELLO*    CLEAR     28  18  64 W12G18    30.16S WCI  18
LOGANSPORT*    PTCLDY    30  23  74 W16G22    30.16R WCI  19
ROCHESTER*     CLEAR     30  25  80 W10       30.14R WCI  21
WARSAW*        CLEAR     28  19  69 W17       30.10F WCI  16
ANGOLA*        MOCLDY    28  23  80 W13       30.06S WCI  18
FORT WAYNE     PTCLDY    30  23  75 W16G22    30.10S WCI  19
HUNTINGTON*    CLEAR     29  23  79 W14G22    30.11F WCI  18
PERU/GRISSOM   CLOUDY    28  25  86 W9        30.13R WCI  20
MARION*        CLEAR     29  25  82 W13       30.15R WCI  19

$$
INZ028>050-080300-
CENTRAL INDIANA

CITY           SKY/WX    TMP DP  RH WIND       PRES   REMARKS
LAFAYETTE      CLEAR     28  23  81 W9        30.18R WCI  19
KOKOMO*        PTCLDY    30  24  78 W13       30.15S WCI  20
MUNCIE*        CLOUDY    32  24  72 W13G18    30.14R WCI  22
INDIANAPOLIS   PTCLDY    31  22  69 W12       30.18R WCI  22

$$
MIZ043>046-050>051-056>058-064>065-071>073-077>080-080300-
SOUTHWEST LOWER MICHIGAN

CITY           SKY/WX    TMP DP  RH WIND       PRES   REMARKS
BATTLE CREEK   CLOUDY    30  22  72 W17G24    30.04S WCI  18
BENTON HARBOR  CLOUDY    30  20  66 W22       30.09S WCI  17
COLDWATER*     CLOUDY    29  21  73 W15G21    30.06S WCI  17
HILLSDALE*     PTCLDY    28  21  74 W14G24    30.03S WCI  17
HOLLAND        CLOUDY    31  24  75 W16G28    30.05R WCI  20
GRAND RAPIDS   CLOUDY    32  22  66 W25G32    30.01F WCI  19
KALAMAZOO      CLOUDY    30  20  66 SW14      30.05F WCI  19
STURGIS*       CLOUDY    28  21  76 W13G20    30.07R WCI  17
THREE RIVERS*  CLOUDY    28  21  74 W9G16     30.08R WCI  20

$$
OHZ001>008-015>018-024>025-080300-
NORTHWEST OHIO

CITY           SKY/WX    TMP DP  RH WIND       PRES   REMARKS
WAUSEON*       CLOUDY    30  25  80 W14       30.05F WCI  20
DEFIANCE       PTCLDY    32  23  69 W7        30.08F WCI  26
FINDLAY        CLOUDY    32  24  72 W14       30.07S WCI  22
TOLEDO EXPRESS PTCLDY    30  25  81 W13       30.06S WCI  20
TOLEDO METCALF CLOUDY    32  25  75 W10       30.07S WCI  24
LIMA           MOCLDY    31  25  78 W12       30.08S WCI  22

$$
AND FOR LAKE MICHIGAN COASTAL AND OPEN LAKE BUOY OBSERVATIONS

STATION/POSITION TEMP    WIND        PRES    VSBY  WAVE
                 AIR SEA DIR/SP/G                  HT/PER
                 (F)     (DEG/KT/KT) (MB)    (MI)  (FT/S)
CALUMET HARBOR    25     260/ 14/ 27 1020.0R
MICHIGAN CITY     29     230/ 31/ 38   N/A
BURNS HARBOR      29     270/ 24/ 34 1020.3S
SAINT JOSEPH      31     260/ 19/ 26 1020.0

$$
&&




USA.gov is the U.S. government's official web portal to all federal, state and local government web resources and services.